Miami, FL

4:13 AM EST on February 21, 2017 (GMT -0500)
Kendall-Tamiami Executive

Weather History for KTMB - December, 2013

Change the Weather History Date:

Sunday, December 8, 2013

  Actual Average Record
Temperature  
Mean Temperature 76 °F -  
Max Temperature 82 °F 77 °F 82 °F (1991)
Min Temperature 69 °F 58 °F 39 °F (2010)
Cooling Degree Days 10    
Growing Degree Days 26 (Base 50)    
Moisture  
Dew Point 70 °F    
Average Humidity 82    
Maximum Humidity 96    
Minimum Humidity 60    
Precipitation  
Precipitation 0.02 in - - ()
Sea Level Pressure  
Sea Level Pressure 30.16 in    
Wind  
Wind Speed 10 mph (ESE)    
Max Wind Speed 17 mph    
Max Gust Speed 25 mph    
Visibility 10 miles    
Events Rain    
Averages and records for this station are not official NWS values.
T = Trace of Precipitation, MM = Missing Value Source: NWS Daily Summary

Daily Weather History Graph

Daily Weather History Graph

Search for Another Location

Airport or City:

Trip Planner

Search our weather history database for the weather conditions in past years. The results will help you decide how hot, cold, wet, or windy it might be!

Date:

Astronomy

Dec. 08, 2013 Rise Set
Actual Time 6:56 AM EST 5:31 PM EST
Civil Twilight 6:31 AM EST 5:56 PM EST
Nautical Twilight 6:02 AM EST 6:24 PM EST
Astronomical Twilight 5:34 AM EST 6:53 PM EST
Moon 11:42 AM EST (12/8) 11:48 PM EST (12/8)
Length of Visible Light 11h 25m
Length of Day
10h 35m
Waxing Crescent, 40% of the Moon is Illuminated
Dec 8
Waxing Crescent
Dec 9
First Quarter
Dec 17
Full
Dec 25
Last Quarter
Jan 1
New

Hourly Weather History & Observations

Time (EST) Temp. Heat Index Dew Point Humidity Pressure Visibility Wind Dir Wind Speed Gust Speed Precip Events Conditions
12:53 AM 75.9 °F - 71.1 °F 85% 30.17 in 10.0 mi East 10.4 mph - N/A   Overcast
1:53 AM 75.0 °F - 72.0 °F 90% 30.15 in 10.0 mi ESE 9.2 mph 19.6 mph 0.00 in Rain Light Rain
2:14 AM 75.2 °F - 71.6 °F 89% 30.15 in 10.0 mi ESE 17.3 mph 25.3 mph 0.00 in   Overcast
2:40 AM 73.4 °F - 71.6 °F 94% 30.15 in 10.0 mi East 12.7 mph - 0.00 in   Overcast
2:53 AM 73.0 °F - 71.1 °F 93% 30.14 in 10.0 mi East 9.2 mph - 0.00 in   Overcast
3:53 AM 73.9 °F - 71.1 °F 91% 30.14 in 10.0 mi East 10.4 mph - N/A   Overcast
4:53 AM 73.0 °F - 72.0 °F 96% 30.14 in 10.0 mi East 4.6 mph - 0.01 in   Overcast
5:53 AM 71.1 °F - 68.0 °F 90% 30.16 in 10.0 mi East 5.8 mph - N/A   Clear
6:53 AM 69.1 °F - 66.9 °F 93% 30.17 in 10.0 mi East 4.6 mph - N/A   Clear
7:53 AM 73.0 °F - 70.0 °F 90% 30.19 in 10.0 mi East 4.6 mph - N/A   Clear
8:53 AM 78.1 °F - 70.0 °F 76% 30.21 in 10.0 mi East 12.7 mph - N/A   Scattered Clouds
9:42 AM 80.6 °F 83.9 °F 69.8 °F 70% 30.21 in 10.0 mi East 13.8 mph - N/A   Mostly Cloudy
9:53 AM 80.1 °F 83.6 °F 71.1 °F 74% 30.21 in 10.0 mi East 16.1 mph - N/A   Mostly Cloudy
10:06 AM 80.6 °F 83.9 °F 69.8 °F 70% 30.21 in 10.0 mi ESE 12.7 mph - N/A   Mostly Cloudy
10:53 AM 80.1 °F 82.9 °F 69.1 °F 69% 30.20 in 10.0 mi ESE 13.8 mph 18.4 mph N/A   Scattered Clouds
11:53 AM 80.1 °F 82.9 °F 69.1 °F 69% 30.18 in 10.0 mi ESE 16.1 mph - N/A   Mostly Cloudy
12:53 PM 82.0 °F 84.5 °F 66.9 °F 60% 30.15 in 10.0 mi SE 13.8 mph 21.9 mph N/A   Mostly Cloudy
1:53 PM 80.1 °F 82.3 °F 66.9 °F 64% 30.14 in 10.0 mi ESE 16.1 mph - N/A   Scattered Clouds
2:53 PM 80.1 °F 82.7 °F 68.0 °F 67% 30.13 in 10.0 mi ESE 11.5 mph - N/A   Scattered Clouds
3:53 PM 79.0 °F - 68.0 °F 69% 30.13 in 10.0 mi ESE 10.4 mph - N/A   Scattered Clouds
4:53 PM 79.0 °F - 68.0 °F 69% 30.13 in 10.0 mi ESE 8.1 mph - N/A   Partly Cloudy
5:53 PM 75.0 °F - 70.0 °F 84% 30.13 in 10.0 mi East 6.9 mph - N/A   Clear
6:53 PM 75.9 °F - 70.0 °F 82% 30.14 in 10.0 mi ESE 8.1 mph - N/A   Scattered Clouds
7:53 PM 75.0 °F - 71.1 °F 87% 30.16 in 10.0 mi ESE 6.9 mph - N/A   Clear
8:53 PM 75.0 °F - 72.0 °F 90% 30.16 in 10.0 mi ESE 8.1 mph - N/A   Scattered Clouds
9:11 PM 75.2 °F - 71.6 °F 89% 30.16 in 10.0 mi East 6.9 mph - N/A   Mostly Cloudy
9:26 PM 75.2 °F - 71.6 °F 89% 30.16 in 10.0 mi ESE 6.9 mph - 0.00 in Rain Light Rain
9:53 PM 75.9 °F - 72.0 °F 87% 30.16 in 10.0 mi ESE 9.2 mph - 0.00 in   Overcast
10:53 PM 73.9 °F - 72.0 °F 93% 30.17 in 7.0 mi South 6.9 mph - 0.01 in Rain Light Rain
11:53 PM 75.9 °F - 72.0 °F 87% 30.15 in 10.0 mi ESE 6.9 mph - 0.00 in   Overcast